sat.trackr.live / text

‹ back to catalog

STARLINK-35818

NORAD 66540 · 2025-265AA

PAYLOAD ACTIVE UNKNOWN

§ Identity

Operator
Country
US
Launch date
2025-11-19
Launch site
AFETR
Launch vehicle
Mass (kg)
RCS (m²)

Purposes: comms

External: N2YO · Heavens-Above · Gunter

§ Orbital elements

Epoch: 2026-09-20T01:15:14.465664Z

Period
94.27 min
Inclination
43.0028°
Eccentricity
0.0001361
Mean motion
15.27582340 rev/d
Perigee alt
482.1 km
Apogee alt
484.0 km
Semi-major
6,861.2 km
B*
3.9441e-4
RAAN
260.7096°
Arg perigee
276.5500°
Mean anomaly
83.5197°
Rev number
4,683

§ Raw data

STARLINK-358181 66540U 25265AA  26263.05225076  .00010608  00000+0  39441-3 0  99952 66540  43.0028 260.7096 0001361 276.5500  83.5197 15.27582340 46837

JSON: /api/v1/satellites/66540 · /tle

For live sub-satellite position, see the globe view (requires WebGL).

§ Visibility from observer

Set your observer location to see the next 7 days of passes ≥ 10°. The values pass through the URL so the page stays shareable.

No JS? Fill the form by hand. The geolocation button needs JavaScript.